AMC-15

Last updated on Wed Sep 17 2025 00:02:46 GMT+0000 (Coordinated Universal Time)

1 28446U 04041A 25259.56284525 -.00000108 00000+0 00000+0 0 9991 2 28446 0.0385 321.8607 0002320 227.9326 263.5204 1.00271108 76563
UTC large
Height (km)
Speed (km/s)
/
Latitude / Longitude
Inclination (degrees)
Orbital Period (minutes)
Azimuth
Elevation
Range (km)
Doppler Factor

Next 0 passes for location: London (51.5072 / 0.1276)

Sorry there are no passes over London.